Other Surface Observations
Issued by NWS Tucson, AZ

Home | Current Version | Previous Version | Text Only | Print | Product List | Glossary On
Versions: 1 2 3 4 5 6 7 8 9 10 11 12 13 14 15 16 17 18 19 20 21 22 23 24 25 26 27 28 29 30 31 32 33 34 35 36 37 38 39 40 41 42 43 44 45 46 47 48 49 50
303
SXUS55 KTWC 261616
OSOTWC

WEATHER ROUNDUP FOR SOUTHEAST ARIZONA
NATIONAL WEATHER SERVICE TUCSON AZ
915 AM MST TUE JUL 26 2016

AZZ504>506-514-261715-
LOCATION       SKY/WX    TMP DP  RH WIND       PRES   REMARKS
TUCSON         MOSUNNY   92  60  34 CALM      30.05R
DAVIS-MONTHAN  SUNNY     90  59  34 NE2       30.04R
CHILDRENS PARK N/A      N/A N/A  35 W2                PIMA CO DEQ
ALVERNON/22ND  N/A       87 N/A N/A W4                PIMA CO DEQ
CHERRY/GLENN   N/A      N/A N/A N/A N/A               PIMA CO DEQ
TANGERINE      N/A       88 N/A N/A W3                PIMA CO DEQ
CONTL RANCH    N/A       90  61  38 SW0               PIMA CO DEQ
GRANT/1ST      N/A       90  57  33 NW0               PIMA CO DEQ
CRAYCROFT/22ND N/A       87  58  37 SW3               PIMA CO DEQ
GOLFLINKS/KOLB N/A      N/A N/A N/A N/A               PIMA CO DEQ
AJO/12TH       N/A       88  59  38 SW6               PIMA CO DEQ
SAGUARO EAST   N/A       30   9  41 N/A               PIMA CO DEQ
FAIRGROUNDS    N/A       83 N/A N/A S0                PIMA CO DEQ
SAGUARO        N/A       91  60  36 SE4               *SABINO CYN
SAN CARLOS     N/A       87  59  39 SW4               *SAN CARLOS
GREEN VALLEY   N/A       83  63  51 SW13              PIMA CO DEQ
HORSE CAMP CYN N/A       84  56  39 E9G12             *ARAVAIPA CYN
RINCON MTNS    N/A       61  53  75 N3                *NR MANNING CAMP
$$

AZZ509>511-261715-
LOCATION       SKY/WX    TMP DP  RH WIND       PRES   REMARKS
SAFFORD        MOSUNNY   87  59  38 SE9       30.07S
STRAY HORSE    N/A       67  49  53 E2                *
TRAIL CABIN    N/A       72  54  53 E6                *N OF GRANVILLE
BLACK HILLS    NOT AVBL
DRY LAKE       N/A       76  53  45 SE6G11            *NATANES MTNS
NOON CREEK     N/A       86  51  30 E4                *PINALENO MTNS
COLUMBINE      N/A       60  45  58 S4                *PINALENO MTNS
GUTHRIE        N/A       73  52  47 SE3G11            *SW OF GUTHRIE
$$

AZZ502-503-513-261715-
LOCATION       SKY/WX    TMP DP  RH WIND       PRES   REMARKS
NOGALES        PTSUNNY   81  66  60 SW3       30.14S
SELLS          N/A       88  68  51 S10G18            *
SASABE         N/A       80  66  62 S13G18            *ALTAR VLY
HOPKINS        N/A       68  60  76 E7G10             *SANTA RITA MTNS
CARR CYN       N/A       84  58  42 NE3               *W OF HEREFORD
$$

AZZ507-508-512-261715-
LOCATION       SKY/WX    TMP DP  RH WIND       PRES   REMARKS
SIERRA VISTA   MOSUNNY   82  62  51 NE13      30.19S
DOUGLAS        MOSUNNY   78  63  59 SE8       30.15F
EMPIRE MTNS    NOT AVBL
MULESHOE RANCH N/A       82  50  33 SE4G12            *PRESERVE
HEADQUARTERS   N/A       79  56  46 NE5G11            *CHIRICAHUA MTNS
$$

.............................NOTES.............................
THIS IS AN AUTOMATED COLLECTIVE WITH MINIMAL QUALITY CONTROL.
PIMA CO DEQ SITES HAVE NONSTANDARD WIND SENSOR HEIGHTS.
PIMA CO DEQ SITES DO NOT REPORT WIND GUSTS.
* INDICATES WIND SENSORS LOCATED AT 20 FEET INSTEAD OF 33 FEET.
..............................KEY..............................
SKY/WX - SKY CONDITION/WEATHER
TMP    - TEMPERATURE IN FAHRENHEIT
DP     - DEWPOINT IN FAHRENHEIT
RH     - RELATIVE HUMIDITY IN PERCENT
WIND   - DIRECTION AND SPEED IN MILES PER HOUR (MPH)
VRB    - VARIABLE WIND DIRECTION
PRES   - MEAN SEA LEVEL PRESSURE IN INCHES OF MERCURY
         F - FALLING PRESSURE   R - RISING PRESSURE
         S - STEADY PRESSURE
VSB    - VISIBILITY IN MILES
HX     - HEAT INDEX IN FAHRENHEIT
WCI    - WIND CHILL INDEX IN FAHRENHEIT
N/A    - NOT AVAILABLE
AFB    - AIR FORCE BASE
         DAVIS-MONTHAN IS DAVIS-MONTHAN AIR FORCE BASE
CYN    - CANYON
MTNS   - MOUNTAINS
NCA    - NATIONAL CONSERVATION AREA
NR     - NEAR
VLY    - VALLEY
CONTL  - CONTINENTAL
PIMA CO DEQ - PIMA COUNTY DEPT OF ENVIRONMENTAL QUALITY



USA.gov is the U.S. government's official web portal to all federal, state and local government web resources and services.